This demonstration page uses our WeatherBlox Daily Observations layout. Learn more.

Left ArrowRight Arrow

40.92945, -100.16068

Hourly Observations for February 26, 2021

Temp ( °F °C ) Dew Point ( °F °C ) Humidity (%) Winds ( mph kmh ) Pressure ( in mb ) Visibility ( mi km ) Precip ( " mm )
12:15 am 00:15 Clear 32 undefined 23 -5.1 69 69 S 14 22 30.14 1021 10 16.0934 N/A
12:35 am 00:35 Clear 32 undefined 22 -5.3 68 68 S 13 20 30.12 1020 10 16.0934 N/A
12:55 am 00:55 Clear 32 undefined 22 -5.6 66 66 S 15 24 30.11 1020 10 16.0934 N/A
1:15 am 01:15 Clear 31 -0.3 22 -5.7 67 67 S 14 22 30.1 1019 10 16.0934 N/A
1:35 am 01:35 Clear 31 -0.5 21 -5.9 67 67 S 14 22 30.1 1019 10 16.0934 N/A
1:55 am 01:55 Clear 31 -0.5 21 -6 67 67 S 15 24 30.09 1019 10 16.0934 N/A
2:15 am 02:15 Clear 31 -0.4 21 -6 66 66 S 18 30 30.07 1018 10 16.0934 N/A
2:35 am 02:35 Clear 31 -0.6 22 -5.7 69 69 S 15 24 30.07 1018 10 16.0934 N/A
2:55 am 02:55 Clear 31 -0.7 22 -5.6 70 70 S 17 28 30.04 1017 10 16.0934 N/A
3:15 am 03:15 Clear 31 -0.8 21 -5.9 69 69 S 16 26 30.03 1017 10 16.0934 N/A
3:35 am 03:35 Clear 31 -0.8 21 -5.9 69 69 SSW 13 20 30.03 1017 10 16.0934 N/A
3:55 am 03:55 Clear 30 -1 22 -5.8 70 70 SSW 14 22 30.03 1017 10 16.0934 N/A
4:15 am 04:15 Clear 30 -1.1 22 -5.7 71 71 SSW 18 30 30.02 1017 10 16.0934 N/A
4:35 am 04:35 Clear 30 -1.2 21 -6 70 70 S 17 28 30.01 1016 10 16.0934 N/A
4:55 am 04:55 Clear 29 -1.8 22 -5.8 74 74 S 13 20 30.01 1016 10 16.0934 N/A
5:15 am 05:15 Clear 28 -2 21 -6 74 74 S 13 20 30.02 1016 10 16.0934 N/A
5:35 am 05:35 Clear 28 -2 21 -6 74 74 S 10 17 30.02 1016 10 16.0934 N/A
5:55 am 05:55 Clear 28 -2.2 21 -6 75 75 N N/A 30.03 1017 10 16.0934 N/A
6:15 am 06:15 Clear 28 -2 21 -6 74 74 N N/A 30.03 1017 10 16.0934 N/A
6:35 am 06:35 Clear 28 -2.5 21 -6.1 77 77 S 9 15 30.01 1016 10 16.0934 N/A
6:55 am 06:55 Clear 27 -2.7 21 -6.1 78 78 SSW 8 13 30.01 1016 10 16.0934 N/A
7:15 am 07:15 Clear 28 -2.5 21 -6 77 77 S 10 17 30 1016 10 16.0934 N/A
7:35 am 07:35 Sunny 28 -2.5 22 -5.6 80 80 S 10 17 29.98 1015 10 16.0934 N/A
7:55 am 07:55 Sunny 28 -2.2 22 -5.7 77 77 S 5 7 30 1016 10 16.0934 N/A
8:15 am 08:15 Sunny 29 -1.7 22 -5.7 74 74 S 8 13 29.99 1016 10 16.0934 N/A
8:35 am 08:35 Sunny 29 -1.5 22 -5.5 74 74 SSW 7 11 29.99 1016 10 16.0934 N/A
8:55 am 08:55 Sunny 30 -1.2 22 -5.5 73 73 SW 6 9 30 1016 10 16.0934 N/A
9:15 am 09:15 Sunny 31 -0.5 23 -5.1 71 71 WSW 7 11 29.99 1016 10 16.0934 N/A
9:35 am 09:35 Sunny 32 undefined 24 -4.7 71 71 WSW 10 17 29.99 1015 10 16.0934 N/A
9:55 am 09:55 Sunny 33 0.4 24 -4.5 70 70 SSW 10 17 29.94 1014 10 16.0934 N/A
10:10 am 10:10 Sunny 34 1 25 -4.1 69 69 S 15 24 29.93 1013 10 16.0934 N/A
10:35 am 10:35 Partly Cloudy 36 2 25 -3.8 66 66 SW 8 13 29.93 1013 10 16.0934 N/A
10:55 am 10:55 Sunny 37 2.6 26 -3.1 66 66 SSW 12 19 29.9 1013 10 16.0934 N/A
11:15 am 11:15 Partly Cloudy 37 3 26 -3.2 64 64 SSW 12 19 29.89 1012 10 16.0934 N/A
11:35 am 11:35 Partly Cloudy 39 3.8 27 -2.9 62 62 SW 14 22 29.87 1011 10 16.0934 N/A
11:55 am 11:55 Partly Cloudy 39 4 27 -2.8 62 62 SW 17 28 29.87 1011 10 16.0934 N/A
12:15 pm 12:15 Mostly Cloudy 41 5.1 28 -2.4 59 59 SW 16 26 29.85 1011 10 16.0934 N/A
12:35 pm 12:35 Partly Cloudy 42 5.5 28 -2.4 57 57 SW 20 31 29.82 1010 10 16.0934 N/A
12:55 pm 12:55 Mostly Cloudy 42 5.6 28 -2.4 57 57 SW 17 28 29.81 1010 10 16.0934 N/A
1:15 pm 13:15 Cloudy 43 6.2 28 -2.4 54 54 SW 18 30 29.8 1009 10 16.0934 N/A
1:35 pm 13:35 Cloudy 44 6.5 28 -2.1 55 55 SW 15 24 29.78 1009 10 16.0934 N/A
1:55 pm 13:55 Mostly Cloudy 44 6.6 28 -2.2 54 54 SSW 15 24 29.77 1008 10 16.0934 N/A
2:15 pm 14:15 Partly Cloudy 46 7.5 29 -1.9 52 52 SSW 13 20 29.75 1008 10 16.0934 N/A
2:30 pm 14:30 Sunny 47 8.1 26 -3.4 44 44 SW 14 22 29.74 1007 10 16.0934 N/A
2:55 pm 14:55 Sunny 48 8.8 25 -4.1 40 40 SW 12 19 29.72 1007 10 16.0934 N/A
3:15 pm 15:15 Sunny 49 9.3 26 -3.6 40 40 SSW 8 13 29.7 1006 10 16.0934 N/A
3:35 pm 15:35 Sunny 50 10 25 -3.7 38 38 WSW 15 24 29.69 1005 10 16.0934 N/A
3:55 pm 15:55 Sunny 50 10.1 26 -3.4 39 39 SW 14 22 29.69 1005 10 16.0934 N/A
4:15 pm 16:15 Partly Cloudy 49 9.2 25 -4 39 39 SW 14 22 29.7 1006 10 16.0934 N/A
4:35 pm 16:35 Mostly Cloudy 51 10.5 26 -3.3 38 38 SSW 10 17 29.68 1005 10 16.0934 N/A
4:55 pm 16:55 Mostly Cloudy 48 8.8 28 -2.3 46 46 S 8 13 29.69 1005 10 16.0934 N/A
5:15 pm 17:15 Cloudy 47 8.2 30 -1 53 53 SSW 3 6 29.7 1006 10 16.0934 N/A
5:35 pm 17:35 Cloudy 48 8.8 26 -3.3 43 43 W 8 13 29.7 1006 10 16.0934 N/A
5:55 pm 17:55 Cloudy 48 9 26 -3.1 43 43 SW 6 9 29.7 1006 10 16.0934 N/A
6:15 pm 18:15 Cloudy 47 8.3 27 -2.7 46 46 W 9 15 29.73 1007 10 16.0934 N/A
6:35 pm 18:35 Mostly Cloudy 44 6.5 24 -4.4 46 46 W 9 15 29.75 1008 10 16.0934 N/A
6:55 pm 18:55 Clear 43 6.3 21 -6 41 41 W 10 17 29.77 1008 10 16.0934 N/A
7:15 pm 19:15 Clear 40 4.7 22 -5.8 47 47 W 12 19 29.79 1009 10 16.0934 N/A
7:35 pm 19:35 Clear 40 4.5 21 -6.1 46 46 W 12 19 29.8 1009 10 16.0934 N/A
7:55 pm 19:55 Clear 40 4.4 19 -7 44 44 W 8 13 29.8 1009 10 16.0934 N/A
8:15 pm 20:15 Clear 39 4 19 -7.4 44 44 W 8 13 29.82 1010 10 16.0934 N/A
8:35 pm 20:35 Clear 40 4.4 17 -8.3 40 40 W 8 13 29.81 1010 10 16.0934 N/A
8:55 pm 20:55 Clear 38 3.6 18 -7.8 43 43 WSW 8 13 29.82 1010 10 16.0934 N/A
9:15 pm 21:15 Clear 38 3.3 19 -7.3 46 46 WSW 8 13 29.84 1011 10 16.0934 N/A
9:35 pm 21:35 Clear 38 3.6 18 -7.9 43 43 WSW 6 9 29.84 1011 10 16.0934 N/A
9:55 pm 21:55 Clear 36 2 20 -6.9 52 52 SW 9 15 29.87 1011 10 16.0934 N/A
10:15 pm 22:15 Clear 37 2.6 20 -6.7 51 51 SSW 9 15 29.87 1012 10 16.0934 N/A
10:35 pm 22:35 Clear 37 2.5 19 -7 50 50 SSW 9 15 29.88 1012 10 16.0934 N/A
10:55 pm 22:55 Clear 34 0.9 21 -6.3 59 59 WSW 7 11 29.9 1012 10 16.0934 N/A
11:15 pm 23:15 Clear 33 0.6 21 -6.1 61 61 WSW 7 11 29.9 1013 10 16.0934 N/A
11:35 pm 23:35 Clear 32 0.1 21 -6.1 63 63 WSW 7 11 29.91 1013 10 16.0934 N/A
11:55 pm 23:55 Clear 31 -0.6 21 -5.9 68 68 WSW 3 6 29.91 1013 10 16.0934 N/A

Powered by AerisWeather